This demonstration page uses our WeatherBlox Daily Observations layout. Learn more.

Left ArrowRight Arrow

Hourly Observations for May 3, 2020

Temp ( °F °C ) Dew Point ( °F °C ) Humidity (%) Winds ( mph kmh ) Pressure ( in mb ) Visibility ( mi km ) Precip ( " mm )
12:53 am 00:53 Clear 67 19.4 58 14.4 73 73 W 3 6 29.9 1012 10 16.0934 N/A
1:53 am 01:53 Clear 66 18.9 59 15 78 78 WNW 6 9 29.9 1013 10 16.0934 N/A
2:53 am 02:53 Mostly Cloudy 69 20.6 59 15 70 70 SW 5 7 29.9 1012 10 16.0934 N/A
3:45 am 03:45 Mostly Cloudy with Light Thunderstorms 68 20 61 16.1 78 78 W 10 17 29.93 1013 8 12.87472 0.01 0.254
3:53 am 03:53 Cloudy with Heavy Thunderstorms 67 19.4 62 16.7 84 84 W 16 26 29.95 1014 3 4.82802 0.08 2.032
4:08 am 04:08 Cloudy with Nearby Thunderstorms 66 18.9 63 17.2 90 90 VRB 5 7 29.91 1013 2.5 4.02335 0.06 1.524
4:16 am 04:16 Cloudy with Rain 65 18.3 62 16.7 90 90 VRB 3 6 29.91 1013 3 4.82802 0.1 2.54
4:53 am 04:53 Mostly Cloudy 64 17.8 62 16.7 93 93 NW 3 6 29.92 1013 10 16.0934 0.11 2.794
5:37 am 05:37 Cloudy with Nearby Thunderstorms 63 17.2 62 16.7 97 97 NE 3 6 29.9 1013 6 9.65604 0.01 0.254
5:53 am 05:53 Cloudy with Light Thunderstorms 63 17.2 63 17.2 100 100 N N/A 29.9 1013 4 6.43736 0.02 0.508
5:58 am 05:58 Cloudy with Heavy Thunderstorms 64 17.8 63 17.2 96 96 undefined N/A 29.95 1014 2.5 4.02335 0.08 2.032
6:06 am 06:06 Cloudy with Thunderstorms 61 16.1 57 13.9 87 87 NNW 16 26 29.95 1014 3 4.82802 0.1 2.54
6:15 am 06:15 Cloudy with Thunderstorms 60 15.6 57 13.9 90 90 N 8 13 29.96 1014 3 4.82802 0.18 4.572
6:23 am 06:23 Cloudy with Heavy Thunderstorms 59 15 57 13.9 93 93 NNW 8 13 29.98 1015 2 3.21868 0.29 7.366
6:34 am 06:34 Cloudy with Thunderstorms 59 15 57 13.9 93 93 NW 3 6 29.99 1015 3 4.82802 0.34 8.636
6:41 am 06:41 Cloudy with Nearby Thunderstorms 59 15 57 13.9 93 93 N N/A 29.98 1015 2.5 4.02335 0.37 9.398
6:50 am 06:50 Cloudy with Thunderstorms 59 15 57 14 94 94 SSE 5 7 29.95 1014 3 4.82802 0.4 10.16
6:53 am 06:53 Cloudy with Heavy Thunderstorms 59 15 58 14.4 96 96 VRB 6 9 29.92 1013 2.5 4.02335 0.42 10.668
7:07 am 07:07 Cloudy with Light Thunderstorms 59 15 57 13.9 93 93 SSE 6 9 29.92 1013 5 8.0467 0.04 1.016
7:26 am 07:26 Cloudy with Nearby Thunderstorms 59 15 57 13.9 93 93 VRB 3 6 29.94 1014 6 9.65604 0.06 1.524
7:53 am 07:53 Cloudy with Nearby Thunderstorms 59 15 58 14.4 96 96 VRB 3 6 29.95 1014 5 8.0467 0.09 2.286
7:59 am 07:59 Cloudy with Thunderstorms 59 15 58 14.4 96 96 VRB 3 6 29.96 1014 2.5 4.02335 0.02 0.508
8:11 am 08:11 Cloudy with Nearby Thunderstorms 59 15 58 14.4 96 96 N N/A 29.94 1014 3 4.82802 0.04 1.016
8:14 am 08:14 Cloudy with Light Rain 59 15 58 14.4 96 96 ESE 3 6 29.94 1014 2.5 4.02335 0.05 1.27
8:22 am 08:22 Cloudy with Light Rain 60 15.6 58 14.4 93 93 N N/A 29.94 1014 3 4.82802 0.06 1.524
8:44 am 08:44 Cloudy with Light Rain 60 15.6 59 15 96 96 N N/A 29.95 1014 1.75 2.816345 0.11 2.794
8:48 am 08:48 Cloudy with Heavy Rain 61 16 59 15 94 94 N N/A 29.94 1014 0.75 1.207005 0.16 4.064
8:53 am 08:53 Cloudy with Light Rain 59 15 59 15 100 100 N 3 6 29.94 1014 1 1.60934 0.16 4.064
9:02 am 09:02 Cloudy with Rain 60 15.6 59 15 96 96 N N/A 29.95 1014 2.5 4.02335 0.02 0.508
9:24 am 09:24 Cloudy with Light Rain 60 15.6 59 15 96 96 N N/A 29.94 1014 5 8.0467 0.04 1.016
9:51 am 09:51 Cloudy 61 16 61 16 100 100 NW 5 7 29.94 1014 7 11.26538 0.04 1.016
9:53 am 09:53 Cloudy 61 16.1 59 15 93 93 WNW 5 7 29.94 1014 7 11.26538 0.04 1.016
10:32 am 10:32 Cloudy 61 16.1 59 15 93 93 N N/A 29.92 1013 10 16.0934 N/A
10:41 am 10:41 Cloudy 62 16.7 59 15 90 90 N N/A 29.92 1013 10 16.0934 N/A
10:53 am 10:53 Cloudy 62 16.7 60 15.6 93 93 WSW 3 6 29.93 1014 10 16.0934 N/A
10:57 am 10:57 Cloudy with Nearby Thunderstorms 61 16.1 60 15.6 97 97 N N/A 29.93 1014 10 16.0934 N/A
11:31 am 11:31 Cloudy with Nearby Thunderstorms 63 17.2 60 15.6 90 90 N N/A 29.92 1013 9 14.48406 N/A
11:39 am 11:39 Cloudy 63 17.2 60 15.6 90 90 N N/A 29.91 1013 10 16.0934 N/A
11:53 am 11:53 Cloudy 64 17.8 61 16.1 90 90 N N/A 29.91 1013 10 16.0934 N/A
12:04 pm 12:04 Cloudy with Nearby Thunderstorms 64 17.8 61 16.1 90 90 N N/A 29.91 1013 10 16.0934 N/A
12:19 pm 12:19 Cloudy 64 17.8 61 16.1 90 90 N N/A 29.91 1013 10 16.0934 N/A
12:53 pm 12:53 Cloudy 64 17.8 62 16.7 93 93 N N/A 29.9 1013 10 16.0934 0.001 0.001
1:53 pm 13:53 Cloudy 65 18.3 62 16.7 90 90 N N/A 29.89 1012 10 16.0934 N/A
2:53 pm 14:53 Cloudy 66 18.9 63 17.2 90 90 WSW 3 6 29.87 1012 10 16.0934 0.01 0.254
3:05 pm 15:05 Cloudy with Nearby Thunderstorms 66 18.9 63 17.2 90 90 SSW 3 6 29.88 1012 10 16.0934 N/A
3:31 pm 15:31 Cloudy with Light Rain 65 18.3 63 17.2 93 93 SW 3 6 29.87 1011 2 3.21868 0.02 0.508
3:53 pm 15:53 Cloudy with Light Rain 65 18.3 64 17.8 97 97 N N/A 29.86 1011 5 8.0467 0.03 0.762
4:29 pm 16:29 Cloudy with Nearby Thunderstorms 65 18.3 64 17.8 97 97 W 3 6 29.85 1011 4 6.43736 0.01 0.254
4:44 pm 16:44 Cloudy with Light Rain 66 18.9 64 17.8 93 93 WNW 6 9 29.85 1011 7 11.26538 0.01 0.254
4:53 pm 16:53 Cloudy with Light Rain 66 18.9 64 17.8 93 93 W 3 6 29.84 1011 9 14.48406 0.01 0.254
5:53 pm 17:53 Partly Cloudy 70 21.1 60 15.6 71 71 NW 7 11 29.81 1009 10 16.0934 0.01 0.254
6:53 pm 18:53 Cloudy 67 19.4 57 13.9 71 71 NW 9 15 29.84 1011 10 16.0934 0.001 0.001
7:44 pm 19:44 Mostly Cloudy with Nearby Thunderstorms 66 18.9 47 8.3 50 50 NNW 21 33 29.83 1010 10 16.0934 0.001 0.001
7:53 pm 19:53 Mostly Cloudy with Nearby Thunderstorms 64 17.8 46 7.8 52 52 NNW 15 24 29.85 1011 10 16.0934 0.001 0.001
8:09 pm 20:09 Mostly Cloudy 62 16.7 46 7.8 56 56 NNW 10 17 29.86 1011 10 16.0934 0.001 0.001
8:53 pm 20:53 Cloudy 60 15.6 47 8.3 62 62 NNW 8 13 29.88 1012 10 16.0934 0.001 0.001
9:53 pm 21:53 Partly Cloudy 56 13.3 48 8.9 75 75 NW 6 9 29.91 1013 10 16.0934 N/A
10:53 pm 22:53 Clear 51 10.6 47 8.3 86 86 NW 6 9 29.93 1014 10 16.0934 N/A
11:53 pm 23:53 Clear 51 10.6 46 7.8 83 83 NW 7 11 29.94 1014 10 16.0934 N/A

Powered by AerisWeather